Simultaneous Nadir Overpasses (SNOs) Predictions

Prediction of SNOs between AQUA and METOP-B Satellite Orbit:

Table of predicted SNOs for the next 14.0 days since TLE Epoch: 1/11/2019
Index Date (AQUA) Time (AQUA) Lat,Lon (AQUA) SZA (AQUA ) Date (METOP-B) Time (METOP-B) Lat,Lon (METOP-B) SZA (METOP-B ) Distance(km) Time Diff (sec)
1 01/13/2019 13:14:54 73.85, -24.56 95.37 01/13/2019 13:13:51 73.83, -24.53 95.36 2.13 63
2 01/13/2019 14:04:20 -73.90, 142.97 84.58 01/13/2019 14:04:32 -73.89, 142.94 84.60 1.78 12
3 01/13/2019 14:53:55 74.26, -50.22 95.80 01/13/2019 14:55:04 74.26, -48.81 95.74 42.40 69
4 01/16/2019 08:49:09 73.84, 41.90 94.86 01/16/2019 08:48:15 73.86, 41.95 94.89 2.66 54
5 01/16/2019 09:38:36 -73.94,-150.68 85.04 01/16/2019 09:38:56 -73.92,-150.58 85.06 3.62 20
6 01/16/2019 10:28:17 74.61, 15.38 95.69 01/16/2019 10:29:22 74.58, 18.43 95.54 90.28 65
7 01/19/2019 04:23:23 73.84, 108.35 94.31 01/19/2019 04:22:39 73.84, 108.30 94.32 1.56 44
8 01/19/2019 05:12:50 -73.93, -84.22 85.60 01/19/2019 05:13:20 -73.90, -84.22 85.63 3.23 30
9 01/21/2019 23:57:38 73.84, 174.79 93.71 01/21/2019 23:57:03 73.86, 174.77 93.74 2.74 35
10 01/22/2019 00:47:05 -73.93, -17.76 86.21 01/22/2019 00:47:44 -73.93, -17.74 86.21 0.75 39
11 01/24/2019 19:31:53 73.85,-118.79 93.06 01/24/2019 19:31:28 73.84,-118.89 93.07 3.21 25
12 01/24/2019 20:21:20 -73.93, 48.67 86.86 01/24/2019 20:22:09 -73.91, 48.61 86.88 3.02 49




NCC Satellite Simultaneous Nadir Overpasses (SNOs) Prediction Service
